Location: Hastringsfeld
(50.9620°N, 10.4787°E)
Time: 19:08:07
(UTC+00:00)

Lacrosse 4 Rocket - Pass Details

Date: 26 September 2023
Orbit: 528 x 604 km, 68.0° (Epoch: 07 December)

Event Time Altitude Azimuth Distance (km) Brightness Sun altitude
Exits shadow 02:34:53 59° 348° (NNW) 669 1.7 -24.1°
Drops below altitude 10° 02:38:38 10° 31° (NNE) 1,908 4.9 -23.6°
Enters shadow 03:36:00 -67° 223° (SW) 12,336 8.1 -15.4°
